Home > Time Zones > World Clock > Weather > Japan > Naha > Past weeks

Flag for Japan Weather past 2 weeks in Naha, Okinawa, Japan

Now
84 °F

Passing clouds.


Feels Like: 94 °F
Forecast: 79 / 82 °F
Wind: 2 mph from North

Location: Naha Airport

Current Time: Oct 2, 2014 at 9:03:36 AM

Latest Report: Oct 2, 2014 at 8:30 AM


Visibility: N/A

Pressure: 29.77 "Hg

Humidity: 79%

Dew point: 77 °F

Location of NahaLocation

Historic Weather in Naha — Graph

°F

Naha temperature yesterday

Maximum temperature yesterday: 86 °F (at 10:00 AM)
Minimum temperature yesterday: 79 °F (at 1:00 AM)
Average temperature yesterday: 83 °F

Past Weeks' High & Low Weather Summary

 TemperatureHumidityPressure
High90 °F (Sep 19, 2:30 PM)89% (Sep 19, 4:30 PM)29.92 "Hg (Sep 19, 4:30 PM)
Low79 °F (Sep 23, 2:00 AM)52% (Sep 17, 3:00 PM)29.68 "Hg (Sep 20, 4:00 AM)
Average84 °F71%29.84 "Hg
* Reported Sep 17 8:00 AM — Oct 2 8:00 AM, Naha, Weather by CustomWeather, © 2014

Note: Actual official high and low records may vary slightly from our data, if they occured in-between our weather recording intervals... More about our weather records

Advertising

Naha weather history for previous 24 hours

 ConditionsComfort  
Time TempWeatherWind HumidityBarometerVisibility
8:00 AM
Oct 2
84 °FPassing clouds.No wind84%29.77 "HgN/A
7:30 AM82 °FPassing clouds.1 mph89%29.77 "HgN/A
7:00 AM81 °FPassing clouds.No wind89%29.77 "HgN/A
6:30 AM81 °FPassing clouds.2 mph84%29.77 "HgN/A
6:00 AM81 °FPassing clouds.2 mph84%29.77 "HgN/A
5:30 AM81 °FPassing clouds.1 mph84%29.77 "HgN/A
5:00 AM81 °FPassing clouds.2 mph84%29.77 "HgN/A
4:30 AM81 °FPassing clouds.1 mph84%29.77 "HgN/A
4:00 AM81 °FPassing clouds.2 mph84%29.77 "HgN/A
3:30 AM81 °FPassing clouds.2 mph84%29.77 "HgN/A
3:00 AM81 °FPassing clouds.No wind84%29.77 "HgN/A
2:30 AM81 °FPassing clouds.2 mph84%29.77 "HgN/A
2:00 AM81 °FPassing clouds.1 mph84%29.77 "HgN/A
1:30 AM81 °FPassing clouds.3 mph84%29.77 "HgN/A
1:00 AM81 °FPassing clouds.5 mph84%29.80 "HgN/A
12:30 AM81 °FPassing clouds.3 mph84%29.80 "HgN/A
12:00 AM82 °FPassing clouds.5 mph79%29.83 "HgN/A
11:30 PM
Oct 1
82 °FPassing clouds.7 mph79%29.83 "HgN/A
11:00 PM82 °FPassing clouds.5 mph79%29.80 "HgN/A
10:30 PM82 °FPassing clouds.7 mph79%29.83 "HgN/A
10:00 PM82 °FPassing clouds.7 mph79%29.83 "HgN/A
9:30 PM82 °FPassing clouds.6 mph79%29.83 "HgN/A
9:00 PM82 °FScattered showers. Passing clouds.8 mph79%29.83 "HgN/A
8:30 PM82 °FPassing clouds.10 mph79%29.83 "HgN/A
8:00 PM82 °FPassing clouds.10 mph79%29.83 "HgN/A
7:30 PM84 °FPassing clouds.12 mph74%29.80 "HgN/A
7:00 PM82 °FPassing clouds.14 mph79%29.80 "HgN/A
6:30 PM84 °FPassing clouds.15 mph70%29.80 "HgN/A
6:00 PM84 °FPassing clouds.15 mph70%29.80 "HgN/A
5:30 PM84 °FPassing clouds.14 mph70%29.80 "HgN/A
5:00 PM86 °FPassing clouds.15 mph66%29.77 "HgN/A
4:30 PM86 °FPassing clouds.15 mph66%29.77 "HgN/A
4:00 PM86 °FPassing clouds.15 mph66%29.77 "HgN/A
3:30 PM86 °FPassing clouds.15 mph62%29.77 "HgN/A
3:00 PM86 °FPassing clouds.13 mph62%29.80 "HgN/A
2:30 PM86 °FPassing clouds.13 mph62%29.80 "HgN/A
2:00 PM86 °FPassing clouds.14 mph59%29.80 "HgN/A
1:30 PM86 °FPassing clouds.14 mph62%29.80 "HgN/A
1:00 PM86 °FPassing clouds.14 mph62%29.80 "HgN/A
12:30 PM86 °FPassing clouds.15 mph62%29.83 "HgN/A
12:00 PM86 °FPassing clouds.16 mph62%29.83 "HgN/A
11:30 AM86 °FPassing clouds.13 mph62%29.86 "HgN/A
11:00 AM86 °FPassing clouds.14 mph55%29.86 "HgN/A
10:30 AM86 °FPassing clouds.7 mph55%29.86 "HgN/A
10:00 AM86 °FPassing clouds.8 mph55%29.86 "HgN/A
9:30 AM84 °FPassing clouds.8 mph66%29.86 "HgN/A
9:00 AM82 °FPassing clouds.7 mph66%29.86 "HgN/A
Weather by CustomWeather, © 2014

See weather overviewHow to use our weather pages